EST,Max TemperatureF,Mean TemperatureF,Min TemperatureF,Max Dew PointF,MeanDew PointF,Min DewpointF,Max Humidity, Mean Humidity, Min Humidity, Max Sea Level PressureIn, Mean Sea Level PressureIn, Min Sea Level PressureIn, Max VisibilityMiles, Mean VisibilityMiles, Min VisibilityMiles, Max Wind SpeedMPH, Mean Wind SpeedMPH, Max Gust SpeedMPH,PrecipitationIn, CloudCover, Events, WindDirDegrees
2013-1-1,22,11,-1,12,2,-7,87,72,56,30.11,30.03,29.92,10,7,1,18,8,25,0.02,6,Snow,215
2013-1-2,19,16,13,14,9,6,80,70,59,30.14,30.05,29.87,10,6,2,17,7,21,0.01,8,Snow,102
2013-1-3,28,21,14,22,14,9,88,78,68,30.06,29.93,29.81,10,5,1,23,10,33,0.10,7,Snow,230
2013-1-4,33,29,24,27,18,15,75,65,54,30.01,29.81,29.71,10,10,2,28,15,38,0.02,8,Snow,265
2013-1-5,32,26,19,21,18,11,81,68,54,30.19,30.03,29.85,10,10,10,23,8,30,0.00,8,,70
2013-1-6,28,23,18,24,16,7,88,72,55,30.24,29.97,29.78,10,8,2,13,6,19,0.01,7,Snow,63
2013-1-7,38,27,16,27,20,7,81,70,59,30.25,29.98,29.79,10,10,10,29,14,39,0.00,7,,180
2013-1-8,41,35,28,29,24,21,85,70,54,30.11,30.03,29.88,10,9,4,18,7,25,0.00,3,,184
2013-1-9,37,35,33,29,26,21,82,69,53,30.34,29.93,29.73,10,7,1,25,14,40,0.00,8,Rain-Snow,259
2013-1-10,38,32,26,30,25,21,82,71,59,30.52,30.38,30.15,10,10,10,21,8,27,0.00,3,,157
2013-1-11,38,36,34,36,34,30,100,91,82,30.13,29.77,29.65,10,3,0,16,8,23,0.33,7,Fog-Rain,109
2013-1-12,47,40,32,41,35,26,93,78,62,29.90,29.68,29.58,10,6,0,25,11,35,0.00,6,Fog,174
2013-1-13,32,31,29,26,24,21,85,77,69,29.91,29.86,29.82,10,7,2,12,7,16,T,8,Snow,301
2013-1-14,27,22,16,22,15,6,84,68,52,30.30,30.10,29.87,10,5,0,21,10,29,0.06,7,Snow,254
2013-1-15,27,18,9,17,9,2,76,66,55,30.32,30.21,30.01,10,10,5,22,9,28,T,3,Snow,222
2013-1-16,29,21,13,25,18,5,85,73,60,29.96,29.69,29.51,10,4,0,25,12,38,0.11,7,Fog-Snow,262
2013-1-17,14,5,-5,8,0,-15,80,69,58,30.27,30.14,29.93,10,4,0,23,10,32,0.28,8,Fog-Snow,295
2013-1-18,21,12,2,17,7,-3,91,76,61,30.28,30.06,29.72,10,3,0,20,8,26,0.52,7,Fog-Snow,161
2013-1-19,30,24,17,25,17,10,92,80,67,29.82,29.59,29.32,10,4,0,23,7,35,0.48,8,Fog-Snow,85
2013-1-20,26,14,1,19,0,-7,83,73,62,30.11,29.94,29.33,10,3,0,26,10,35,0.17,7,Fog-Snow,356
2013-1-21,9,3,-3,-2,-6,-12,79,68,56,30.05,29.92,29.81,10,6,1,13,5,17,0.06,8,Snow,55
2013-1-22,-2,-8,-15,-15,-19,-25,72,59,45,30.22,30.16,30.03,10,8,2,9,4,14,0.02,6,Snow,87
2013-1-23,7,-2,-12,2,-10,-18,80,73,65,30.31,30.13,30.04,10,7,2,15,6,22,0.01,7,Snow,80
2013-1-24,8,-3,-15,-2,-10,-20,87,70,53,30.63,30.54,30.35,10,10,7,15,4,19,T,1,,23
2013-1-25,16,9,1,11,6,-4,87,80,73,30.45,30.11,29.96,10,3,1,13,6,19,0.07,8,Snow,95
2013-1-26,23,14,4,9,7,1,92,73,54,30.41,30.26,30.03,10,8,2,7,3,10,0.01,4,Snow,99
2013-1-27,27,19,11,23,15,6,88,81,73,30.41,30.28,30.09,10,8,2,10,6,16,0.01,8,Rain-Snow,104
2013-1-28,34,31,27,28,27,23,92,84,75,30.09,29.91,29.82,10,3,0,10,5,14,0.47,8,Fog-Snow,97
2013-1-29,35,30,25,33,28,23,96,87,78,29.97,29.70,29.48,10,4,0,16,8,25,0.11,8,Fog-Rain,104
2013-1-30,35,23,10,33,24,2,92,81,70,29.45,29.28,29.13,10,4,0,16,9,24,0.40,8,Fog-Rain-Snow,358
2013-1-31,10,6,2,2,-2,-7,76,69,62,29.84,29.56,29.23,10,7,2,17,11,23,T,8,Snow,341